Location: Unspecified
(38.0144°N, 0.0000°E)
Time: 07:13:23
(UTC+00:00)

COSMOS 1249 COOLANT - Visible Passes

Search period start: 04 April 2026 00:00
Search period end: 14 April 2026 00:00
Orbit: 874 x 970 km, 65.0° (Epoch: 25 March)

Date Brightness Start Highest point End Pass type
(mag) Time Alt. Az. Time Alt. Az. Time Alt. Az.
4 Apr ? 22:17:52 16° NNE 22:17:52 16° NNE 22:19:01 10° NNE visible
5 Apr ? 00:01:18 15° NNW 00:01:18 15° NNW 00:04:03 10° N visible
5 Apr ? 22:25:40 23° N 22:25:40 23° N 22:28:07 10° NNE visible
6 Apr ? 00:09:03 11° NW 00:10:12 11° NNW 00:12:02 10° NNW visible
6 Apr ? 20:49:38 14° NE 20:49:38 14° NE 20:50:34 10° NE visible
6 Apr ? 22:33:00 30° NNW 22:33:00 30° NNW 22:37:04 10° NNE visible
7 Apr ? 03:59:37 10° NNE 04:00:53 11° NNE 04:02:08 10° NE visible
7 Apr ? 20:56:01 39° NE 20:56:01 39° NE 21:00:00 10° NE visible
7 Apr ? 22:39:15 22° WNW 22:40:49 25° NW 22:45:56 10° N visible
8 Apr ? 04:07:19 10° N 04:10:39 14° NE 04:13:57 10° ENE visible
8 Apr ? 19:14:13 10° SE 19:17:11 14° ESE 19:20:10 10° ENE visible
8 Apr ? 20:56:39 10° SSW 21:02:53 86° WNW 21:09:16 10° NNE visible
8 Apr ? 22:46:15 10° W 22:50:24 18° NW 22:54:37 10° N visible
9 Apr ? 04:15:49 10° N 04:20:19 20° NE 04:24:45 10° E visible
9 Apr ? 19:21:25 10° SSE 19:26:03 22° ESE 19:30:44 10° ENE visible
9 Apr ? 21:05:59 10° SW 21:12:07 59° NW 21:18:24 10° NNE visible
9 Apr ? 22:57:12 10° WNW 23:00:06 13° NW 23:03:01 10° N visible
10 Apr ? 04:24:34 10° N 04:29:52 27° NE 04:35:04 10° ESE visible
10 Apr ? 19:29:30 10° S 19:34:59 34° ESE 19:40:35 10° NE visible
10 Apr ? 21:15:35 10° WSW 21:21:27 41° NW 21:27:26 10° NNE visible
11 Apr ? 04:33:27 10° NNW 04:39:19 37° NE 04:45:03 10° ESE visible
11 Apr ? 19:38:02 10° S 19:44:00 52° ESE 19:50:07 10° NE visible
11 Apr ? 21:25:30 10° WSW 21:30:52 29° NW 21:36:21 10° NNE visible
12 Apr ? 02:58:06 10° N 03:00:34 12° NNE 03:03:01 10° ENE visible
12 Apr ? 04:42:27 10° NNW 04:48:40 54° NE 04:54:44 10° SE visible
12 Apr ? 19:46:54 10° SSW 19:53:06 78° ESE 19:59:27 10° NNE visible
12 Apr ? 21:35:44 10° W 21:40:24 21° NW 21:45:08 10° N visible
13 Apr ? 03:06:22 10° N 03:10:17 17° NE 03:14:10 10° ENE visible
13 Apr ? 04:51:34 10° NNW 04:57:56 79° ENE 05:04:08 10° SE visible
13 Apr ? 19:56:04 10° SW 20:02:17 73° WNW 20:08:39 10° NNE visible
13 Apr ? 21:46:23 10° WNW 21:50:02 16° NW 21:53:43 10° N visible
